Flag for U.S.A. Weather past 2 weeks in Lexington-Fayette, Kentucky, U.S.A.

Now
51 °F

Overcast.


Feels Like: 49 °F
Forecast: 36 / 54 °F
Wind: 6 mph from Southeast

Location: Blue Grass Airport

Current Time: Dec 22, 2014 at 1:37:20 PM

Latest Report: Dec 22, 2014 at 12:54 PM


Visibility: 10 mi

Pressure: 29.90 "Hg

Humidity: 63%

Dew point: 39 °F

Location of Lexington-FayetteLocation

Historic Weather in Lexington-Fayette — Graph

°F

Lexington-Fayette temperature yesterday

Maximum temperature yesterday: 42 °F (at 2:54 PM)
Minimum temperature yesterday: 22 °F (at 3:54 AM)
Average temperature yesterday: 31 °F

Past Weeks' High & Low Weather Summary

 TemperatureHumidityPressure
High52 °F (Dec 15, 11:54 PM)97% (Dec 9, 6:54 AM)30.53 "Hg (Dec 9, 6:54 AM)
Low21 °F (Dec 12, 7:54 AM)41% (Dec 12, 3:54 PM)29.75 "Hg (Dec 16, 4:54 AM)
Average36 °F77%30.21 "Hg
* Reported Dec 7 11:54 AM — Dec 22 11:54 AM, Lexington-Fayette, Weather by CustomWeather, © 2014

Note: Actual official high and low records may vary slightly from our data, if they occured in-between our weather recording intervals... More about our weather records

Advertising

Lexington-Fayette weather history for previous 24 hours

 ConditionsComfort  
Time TempWeatherWind HumidityBarometerVisibility
11:54 AM
Dec 22
50 °FOvercast.12 mph63%29.96 "Hg10 mi
10:54 AM50 °FSunny.9 mph59%29.99 "Hg10 mi
9:54 AM44 °FPartly sunny.8 mph65%30.01 "Hg10 mi
8:54 AM37 °FPassing clouds.8 mph76%30.01 "Hg10 mi
7:54 AM37 °FPartly sunny.9 mph73%30.02 "Hg10 mi
6:54 AM37 °FOvercast.8 mph73%30.02 "Hg10 mi
5:54 AM38 °FOvercast.10 mph70%30.02 "Hg10 mi
4:54 AM38 °FOvercast.6 mph70%30.03 "Hg10 mi
3:54 AM37 °FOvercast.8 mph70%30.03 "Hg10 mi
2:54 AM37 °FMostly cloudy.9 mph70%30.04 "Hg10 mi
1:54 AM36 °FOvercast.9 mph73%30.05 "Hg10 mi
12:54 AM35 °FOvercast.9 mph72%30.07 "Hg10 mi
11:54 PM
Dec 21
34 °FPassing clouds.8 mph76%30.10 "Hg10 mi
10:54 PM33 °FClear.9 mph78%30.11 "Hg10 mi
9:54 PM32 °FClear.6 mph82%30.13 "Hg10 mi
8:54 PM32 °FClear.9 mph82%30.15 "Hg9 mi
7:54 PM32 °FClear.9 mph82%30.16 "Hg10 mi
6:54 PM33 °FClear.8 mph78%30.16 "Hg10 mi
5:54 PM34 °FClear.7 mph76%30.17 "Hg10 mi
4:54 PM37 °FSunny.7 mph70%30.17 "Hg10 mi
3:54 PM42 °FSunny.No wind57%30.17 "Hg10 mi
2:54 PM42 °FSunny.8 mph57%30.18 "Hg10 mi
1:54 PM40 °FSunny.7 mph63%30.21 "Hg10 mi
Weather by CustomWeather, © 2014

See weather overviewHow to use our weather pages